Back to catalog

STARLINK-3560

AliveCommunicationsVLEO
NORAD 51859·PAYLOAD·🇺🇸 United States

Launched Mar 3, 2022 from Cape Canaveral Space Force Station

Loading…

Next Passes (next 24 hours)

TLE

FreshSource: CelesTrak SupGP

Epoch: Sep 14, 2026, 13:54 UTC

1 51859C 22022H   26257.57965278  .00025677  00000+0  82539-3 0  2570
2 51859  53.1575 229.3358 0001451  87.3325 310.6209 15.31701431    15

Track STARLINK-3560 in real time with AllMySat

Download on the App Store